Time,TemperatureF,DewpointF,PressureIn,WindDirection,WindDirectionDegrees,WindSpeedMPH,WindSpeedGustMPH,Humidity,HourlyPrecipIn,Conditions,Clouds,dailyrainin,SoftwareType,DateUTC
2013-09-06 00:02:00,64.9,60.3,30.10,WNW,297,0.0,4.0,85,0.00,,,0.00,WUHU216DAVISVP2,2013-09-06 05:02:00,
2013-09-06 00:07:00,65.0,60.1,30.10,WNW,297,0.0,0.0,84,0.00,,,0.00,WUHU216DAVISVP2,2013-09-06 05:07:00,
2013-09-06 00:12:00,65.1,60.2,30.10,WNW,297,0.0,0.0,84,0.00,,,0.00,WUHU216DAVISVP2,2013-09-06 05:12:00,
2013-09-06 00:17:00,65.1,60.2,30.09,WNW,297,0.0,0.0,84,0.00,,,0.00,WUHU216DAVISVP2,2013-09-06 05:17:00,
2013-09-06 00:22:00,65.1,60.2,30.09,WNW,297,0.0,0.0,84,0.00,,,0.00,WUHU216DAVISVP2,2013-09-06 05:22:00,
2013-09-06 00:27:00,65.2,60.6,30.09,WNW,297,0.0,2.0,85,0.00,,,0.00,WUHU216DAVISVP2,2013-09-06 05:27:00,
2013-09-06 00:32:00,65.3,60.7,30.09,WNW,297,0.0,3.0,85,0.00,,,0.00,WUHU216DAVISVP2,2013-09-06 05:32:00,
2013-09-06 00:37:00,65.4,60.8,30.09,WNW,297,1.0,3.0,85,0.00,,,0.00,WUHU216DAVISVP2,2013-09-06 05:37:00,
2013-09-06 00:42:00,65.5,60.6,30.10,WNW,297,0.0,3.0,84,0.00,,,0.00,WUHU216DAVISVP2,2013-09-06 05:42:00,
2013-09-06 00:47:00,65.4,60.5,30.09,WNW,297,0.0,3.0,84,0.00,,,0.00,WUHU216DAVISVP2,2013-09-06 05:47:00,
2013-09-06 00:52:00,65.3,60.4,30.09,WNW,297,0.0,2.0,84,0.00,,,0.00,WUHU216DAVISVP2,2013-09-06 05:52:00,
2013-09-06 00:57:00,65.2,60.6,30.09,WNW,297,0.0,1.0,85,0.00,,,0.00,WUHU216DAVISVP2,2013-09-06 05:57:00,
2013-09-06 01:02:00,65.1,60.5,30.09,WNW,297,0.0,2.0,85,0.00,,,0.00,WUHU216DAVISVP2,2013-09-06 06:02:00,
2013-09-06 01:07:00,65.0,60.4,30.09,WNW,297,1.0,3.0,85,0.00,,,0.00,WUHU216DAVISVP2,2013-09-06 06:07:00,
2013-09-06 01:12:00,64.9,60.3,30.09,WNW,297,3.0,6.0,85,0.00,,,0.00,WUHU216DAVISVP2,2013-09-06 06:12:00,
2013-09-06 01:17:00,64.8,60.2,30.09,WNW,297,0.0,6.0,85,0.00,,,0.00,WUHU216DAVISVP2,2013-09-06 06:17:00,
2013-09-06 01:22:00,64.8,60.2,30.09,WNW,297,2.0,6.0,85,0.00,,,0.00,WUHU216DAVISVP2,2013-09-06 06:22:00,
2013-09-06 01:27:00,64.9,60.3,30.09,WNW,297,3.0,6.0,85,0.00,,,0.00,WUHU216DAVISVP2,2013-09-06 06:27:00,
2013-09-06 01:32:00,64.9,60.3,30.09,WNW,297,4.0,6.0,85,0.00,,,0.00,WUHU216DAVISVP2,2013-09-06 06:32:00,
2013-09-06 01:37:00,65.0,60.1,30.09,WNW,297,1.0,5.0,84,0.00,,,0.00,WUHU216DAVISVP2,2013-09-06 06:37:00,
2013-09-06 01:42:00,65.1,60.2,30.09,WNW,297,2.0,5.0,84,0.00,,,0.00,WUHU216DAVISVP2,2013-09-06 06:42:00,
2013-09-06 01:47:00,65.2,60.0,30.09,WNW,297,2.0,5.0,83,0.00,,,0.00,WUHU216DAVISVP2,2013-09-06 06:47:00,
2013-09-06 01:52:00,65.3,60.1,30.09,WNW,297,0.0,4.0,83,0.00,,,0.00,WUHU216DAVISVP2,2013-09-06 06:52:00,
2013-09-06 01:57:00,65.4,60.2,30.09,WNW,297,0.0,4.0,83,0.00,,,0.00,WUHU216DAVISVP2,2013-09-06 06:57:00,
2013-09-06 02:02:00,65.4,60.1,30.09,WNW,297,1.0,4.0,83,0.00,,,0.00,WUHU216DAVISVP2,2013-09-06 07:02:00,
2013-09-06 02:07:00,65.3,60.0,30.09,WNW,297,2.0,4.0,83,0.00,,,0.00,WUHU216DAVISVP2,2013-09-06 07:07:00,
2013-09-06 02:12:00,65.3,60.0,30.09,WNW,297,0.0,4.0,83,0.00,,,0.00,WUHU216DAVISVP2,2013-09-06 07:12:00,
2013-09-06 02:17:00,65.3,60.0,30.09,WNW,297,0.0,4.0,83,0.00,,,0.00,WUHU216DAVISVP2,2013-09-06 07:17:00,
2013-09-06 02:22:00,65.2,59.9,30.09,WNW,297,2.0,4.0,83,0.00,,,0.00,WUHU216DAVISVP2,2013-09-06 07:22:00,
2013-09-06 02:27:00,65.2,59.9,30.08,WNW,297,0.0,4.0,83,0.00,,,0.00,WUHU216DAVISVP2,2013-09-06 07:27:00,
2013-09-06 02:32:00,65.1,59.9,30.08,WNW,297,1.0,4.0,83,0.00,,,0.00,WUHU216DAVISVP2,2013-09-06 07:32:00,
2013-09-06 02:37:00,65.0,60.1,30.08,WNW,297,0.0,4.0,84,0.00,,,0.00,WUHU216DAVISVP2,2013-09-06 07:37:00,
2013-09-06 02:42:00,64.9,60.0,30.08,WNW,297,1.0,4.0,84,0.00,,,0.00,WUHU216DAVISVP2,2013-09-06 07:42:00,
2013-09-06 02:47:00,64.8,59.8,30.08,WNW,297,0.0,4.0,84,0.00,,,0.00,WUHU216DAVISVP2,2013-09-06 07:47:00,
2013-09-06 02:52:00,64.7,59.8,30.08,WNW,297,0.0,4.0,84,0.00,,,0.00,WUHU216DAVISVP2,2013-09-06 07:52:00,
2013-09-06 02:57:00,64.7,59.8,30.08,WNW,297,0.0,4.0,84,0.00,,,0.00,WUHU216DAVISVP2,2013-09-06 07:57:00,
2013-09-06 03:02:00,64.5,59.9,30.08,WNW,297,0.0,2.0,85,0.00,,,0.00,WUHU216DAVISVP2,2013-09-06 08:02:00,
2013-09-06 03:07:00,64.3,59.7,30.08,WNW,297,0.0,1.0,85,0.00,,,0.00,WUHU216DAVISVP2,2013-09-06 08:07:00,
2013-09-06 03:12:00,64.0,59.5,30.08,WNW,297,0.0,1.0,85,0.00,,,0.00,WUHU216DAVISVP2,2013-09-06 08:12:00,
2013-09-06 03:17:00,63.9,59.6,30.08,WNW,297,0.0,0.0,86,0.00,,,0.00,WUHU216DAVISVP2,2013-09-06 08:17:00,
2013-09-06 03:22:00,63.6,59.3,30.08,WNW,297,0.0,0.0,86,0.00,,,0.00,WUHU216DAVISVP2,2013-09-06 08:22:00,
2013-09-06 03:27:00,63.5,59.6,30.08,WNW,297,0.0,0.0,87,0.00,,,0.00,WUHU216DAVISVP2,2013-09-06 08:27:00,
2013-09-06 03:32:00,63.4,59.5,30.07,WNW,297,0.0,0.0,87,0.00,,,0.00,WUHU216DAVISVP2,2013-09-06 08:32:00,
2013-09-06 03:37:00,63.3,59.4,30.07,WNW,297,0.0,0.0,87,0.00,,,0.00,WUHU216DAVISVP2,2013-09-06 08:37:00,
2013-09-06 03:42:00,63.3,59.3,30.07,WNW,297,0.0,0.0,87,0.00,,,0.00,WUHU216DAVISVP2,2013-09-06 08:42:00,
2013-09-06 03:47:00,63.2,59.2,30.07,WNW,297,0.0,0.0,87,0.00,,,0.00,WUHU216DAVISVP2,2013-09-06 08:47:00,
2013-09-06 03:52:00,63.1,59.5,30.07,WNW,297,0.0,0.0,88,0.00,,,0.00,WUHU216DAVISVP2,2013-09-06 08:52:00,
2013-09-06 03:57:00,63.0,59.4,30.07,WNW,297,0.0,0.0,88,0.00,,,0.00,WUHU216DAVISVP2,2013-09-06 08:57:00,
2013-09-06 04:02:00,62.8,59.2,30.07,WNW,297,0.0,0.0,88,0.00,,,0.00,WUHU216DAVISVP2,2013-09-06 09:02:00,
2013-09-06 04:07:00,62.7,59.1,30.07,WNW,297,0.0,0.0,88,0.00,,,0.00,WUHU216DAVISVP2,2013-09-06 09:07:00,
2013-09-06 04:12:00,62.5,59.2,30.06,WNW,297,0.0,0.0,89,0.00,,,0.00,WUHU216DAVISVP2,2013-09-06 09:12:00,
2013-09-06 04:17:00,62.4,59.1,30.06,WNW,297,0.0,0.0,89,0.00,,,0.00,WUHU216DAVISVP2,2013-09-06 09:17:00,
2013-09-06 04:22:00,62.4,59.1,30.06,WNW,297,0.0,0.0,89,0.00,,,0.00,WUHU216DAVISVP2,2013-09-06 09:22:00,
2013-09-06 04:27:00,62.5,59.2,30.06,WNW,297,2.0,3.0,89,0.00,,,0.00,WUHU216DAVISVP2,2013-09-06 09:27:00,
2013-09-06 04:32:00,62.4,59.1,30.06,WNW,297,1.0,4.0,89,0.00,,,0.00,WUHU216DAVISVP2,2013-09-06 09:32:00,
2013-09-06 04:37:00,62.4,59.1,30.07,WNW,297,0.0,4.0,89,0.00,,,0.00,WUHU216DAVISVP2,2013-09-06 09:37:00,
2013-09-06 04:42:00,62.5,59.1,30.07,WNW,297,0.0,4.0,89,0.00,,,0.00,WUHU216DAVISVP2,2013-09-06 09:42:00,
2013-09-06 04:47:00,62.4,59.1,30.07,WNW,297,0.0,4.0,89,0.00,,,0.00,WUHU216DAVISVP2,2013-09-06 09:47:00,
2013-09-06 04:52:00,62.3,59.0,30.07,WNW,297,0.0,0.0,89,0.00,,,0.00,WUHU216DAVISVP2,2013-09-06 09:52:00,
2013-09-06 04:57:00,62.1,59.1,30.07,WNW,297,0.0,0.0,90,0.00,,,0.00,WUHU216DAVISVP2,2013-09-06 09:57:00,
2013-09-06 05:02:00,62.1,59.1,30.07,WNW,297,0.0,0.0,90,0.00,,,0.00,WUHU216DAVISVP2,2013-09-06 10:02:00,
2013-09-06 05:07:00,62.0,59.0,30.07,WNW,297,0.0,0.0,90,0.00,,,0.00,WUHU216DAVISVP2,2013-09-06 10:07:00,
2013-09-06 05:12:00,61.9,59.2,30.07,WNW,297,0.0,0.0,91,0.00,,,0.00,WUHU216DAVISVP2,2013-09-06 10:12:00,
2013-09-06 05:17:00,62.0,59.3,30.07,WNW,297,0.0,0.0,91,0.00,,,0.00,WUHU216DAVISVP2,2013-09-06 10:17:00,
2013-09-06 05:22:00,61.8,59.1,30.07,WNW,297,0.0,0.0,91,0.00,,,0.00,WUHU216DAVISVP2,2013-09-06 10:22:00,
2013-09-06 05:27:00,61.7,59.0,30.08,WNW,297,0.0,0.0,91,0.00,,,0.00,WUHU216DAVISVP2,2013-09-06 10:27:00,
2013-09-06 05:32:00,61.9,59.5,30.08,WNW,297,0.0,0.0,92,0.00,,,0.00,WUHU216DAVISVP2,2013-09-06 10:32:00,
2013-09-06 05:37:00,61.8,59.1,30.08,WNW,297,0.0,0.0,91,0.00,,,0.00,WUHU216DAVISVP2,2013-09-06 10:37:00,
2013-09-06 05:42:00,61.7,59.0,30.08,WNW,297,0.0,0.0,91,0.00,,,0.00,WUHU216DAVISVP2,2013-09-06 10:42:00,
2013-09-06 05:47:00,61.7,59.1,30.08,WNW,297,0.0,0.0,91,0.00,,,0.00,WUHU216DAVISVP2,2013-09-06 10:47:00,
2013-09-06 05:52:00,61.7,59.0,30.08,WNW,297,0.0,0.0,91,0.00,,,0.00,WUHU216DAVISVP2,2013-09-06 10:52:00,
2013-09-06 05:57:00,61.7,59.0,30.08,WNW,297,0.0,0.0,91,0.00,,,0.00,WUHU216DAVISVP2,2013-09-06 10:57:00,
2013-09-06 06:02:00,61.6,59.0,30.08,WNW,297,0.0,0.0,91,0.00,,,0.00,WUHU216DAVISVP2,2013-09-06 11:02:00,
2013-09-06 06:07:00,61.6,58.9,30.08,WNW,297,0.0,0.0,91,0.00,,,0.00,WUHU216DAVISVP2,2013-09-06 11:07:00,
2013-09-06 06:12:00,61.5,58.8,30.09,WNW,297,0.0,0.0,91,0.00,,,0.00,WUHU216DAVISVP2,2013-09-06 11:12:00,
2013-09-06 06:17:00,61.4,59.1,30.09,WNW,297,0.0,2.0,92,0.00,,,0.00,WUHU216DAVISVP2,2013-09-06 11:17:00,
2013-09-06 06:22:00,61.5,59.1,30.09,WNW,297,0.0,2.0,92,0.00,,,0.00,WUHU216DAVISVP2,2013-09-06 11:22:00,
2013-09-06 06:27:00,61.5,59.1,30.09,WNW,297,0.0,3.0,92,0.00,,,0.00,WUHU216DAVISVP2,2013-09-06 11:27:00,
2013-09-06 06:32:00,61.7,59.3,30.09,WNW,297,0.0,3.0,92,0.00,,,0.00,WUHU216DAVISVP2,2013-09-06 11:32:00,
2013-09-06 06:37:00,61.8,59.4,30.09,WNW,297,0.0,3.0,92,0.00,,,0.00,WUHU216DAVISVP2,2013-09-06 11:37:00,
2013-09-06 06:42:00,61.9,59.5,30.09,WNW,297,0.0,3.0,92,0.00,,,0.00,WUHU216DAVISVP2,2013-09-06 11:42:00,
2013-09-06 06:47:00,62.0,59.6,30.09,WNW,297,0.0,3.0,92,0.00,,,0.00,WUHU216DAVISVP2,2013-09-06 11:47:00,
2013-09-06 06:52:00,62.0,59.6,30.09,WNW,297,0.0,0.0,92,0.00,,,0.00,WUHU216DAVISVP2,2013-09-06 11:52:00,
2013-09-06 06:57:00,62.0,59.6,30.09,WNW,297,0.0,0.0,92,0.00,,,0.00,WUHU216DAVISVP2,2013-09-06 11:57:00,
2013-09-06 07:02:00,62.1,59.7,30.09,WNW,297,0.0,0.0,92,0.00,,,0.00,WUHU216DAVISVP2,2013-09-06 12:02:00,
2013-09-06 07:07:00,62.2,59.5,30.09,WNW,297,0.0,0.0,91,0.00,,,0.00,WUHU216DAVISVP2,2013-09-06 12:07:00,
2013-09-06 07:12:00,62.2,59.6,30.09,WNW,297,0.0,0.0,91,0.00,,,0.00,WUHU216DAVISVP2,2013-09-06 12:12:00,
2013-09-06 07:17:00,62.3,59.6,30.10,WNW,297,0.0,0.0,91,0.00,,,0.00,WUHU216DAVISVP2,2013-09-06 12:17:00,
2013-09-06 07:22:00,62.3,59.6,30.10,WNW,297,0.0,0.0,91,0.00,,,0.00,WUHU216DAVISVP2,2013-09-06 12:22:00,
2013-09-06 07:27:00,62.4,59.7,30.10,WNW,297,1.0,3.0,91,0.00,,,0.00,WUHU216DAVISVP2,2013-09-06 12:27:00,
2013-09-06 07:32:00,62.4,59.7,30.10,WNW,297,0.0,3.0,91,0.00,,,0.00,WUHU216DAVISVP2,2013-09-06 12:32:00,
2013-09-06 07:37:00,62.5,60.1,30.10,WNW,297,0.0,3.0,92,0.00,,,0.00,WUHU216DAVISVP2,2013-09-06 12:37:00,
2013-09-06 07:42:00,62.8,60.4,30.10,WNW,297,2.0,4.0,92,0.00,,,0.00,WUHU216DAVISVP2,2013-09-06 12:42:00,
2013-09-06 07:47:00,63.1,60.7,30.10,WNW,297,0.0,4.0,92,0.00,,,0.00,WUHU216DAVISVP2,2013-09-06 12:47:00,
2013-09-06 07:52:00,63.3,60.6,30.10,WNW,297,0.0,4.0,91,0.00,,,0.00,WUHU216DAVISVP2,2013-09-06 12:52:00,
2013-09-06 07:57:00,63.7,61.0,30.10,WNW,297,0.0,4.0,91,0.00,,,0.00,WUHU216DAVISVP2,2013-09-06 12:57:00,
2013-09-06 08:02:00,63.9,61.2,30.10,WNW,297,0.0,4.0,91,0.00,,,0.00,WUHU216DAVISVP2,2013-09-06 13:02:00,
2013-09-06 08:07:00,64.0,61.3,30.10,WNW,297,0.0,3.0,91,0.00,,,0.00,WUHU216DAVISVP2,2013-09-06 13:07:00,
2013-09-06 08:12:00,64.1,61.4,30.10,WNW,297,0.0,3.0,91,0.00,,,0.00,WUHU216DAVISVP2,2013-09-06 13:12:00,
2013-09-06 08:17:00,64.5,61.7,30.10,WNW,297,0.0,3.0,91,0.00,,,0.00,WUHU216DAVISVP2,2013-09-06 13:17:00,
2013-09-06 08:22:00,64.7,61.7,30.10,WNW,297,0.0,5.0,90,0.00,,,0.00,WUHU216DAVISVP2,2013-09-06 13:22:00,
2013-09-06 08:27:00,65.0,61.7,30.11,NW,304,0.0,6.0,89,0.00,,,0.00,WUHU216DAVISVP2,2013-09-06 13:27:00,
2013-09-06 08:32:00,65.2,61.5,30.11,NW,304,3.0,6.0,88,0.00,,,0.00,WUHU216DAVISVP2,2013-09-06 13:32:00,
2013-09-06 08:38:00,65.2,61.6,30.11,NW,304,2.0,6.0,88,0.00,,,0.00,WUHU216DAVISVP2,2013-09-06 13:38:00,
2013-09-06 08:43:00,65.2,61.2,30.11,NW,304,2.0,6.0,87,0.00,,,0.00,WUHU216DAVISVP2,2013-09-06 13:43:00,
2013-09-06 08:48:00,65.1,61.1,30.11,NW,304,3.0,6.0,87,0.00,,,0.00,WUHU216DAVISVP2,2013-09-06 13:48:00,
2013-09-06 08:53:00,65.3,61.3,30.11,NW,317,3.0,6.0,87,0.00,,,0.00,WUHU216DAVISVP2,2013-09-06 13:53:00,
2013-09-06 08:58:00,65.7,61.7,30.10,NW,317,1.0,6.0,87,0.00,,,0.00,WUHU216DAVISVP2,2013-09-06 13:58:00,
2013-09-06 09:03:00,66.4,62.4,30.10,NW,318,4.0,6.0,87,0.00,,,0.00,WUHU216DAVISVP2,2013-09-06 14:03:00,
2013-09-06 09:08:00,66.9,62.3,30.11,NW,319,4.0,6.0,85,0.00,,,0.00,WUHU216DAVISVP2,2013-09-06 14:08:00,
2013-09-06 09:13:00,67.5,62.5,30.10,NW,317,4.0,7.0,84,0.00,,,0.00,WUHU216DAVISVP2,2013-09-06 14:13:00,
2013-09-06 09:18:00,67.7,62.4,30.11,NW,316,3.0,7.0,83,0.00,,,0.00,WUHU216DAVISVP2,2013-09-06 14:18:00,
2013-09-06 09:23:00,68.0,62.3,30.11,NW,324,5.0,7.0,82,0.00,,,0.00,WUHU216DAVISVP2,2013-09-06 14:23:00,
2013-09-06 09:28:00,67.9,62.3,30.10,NW,326,2.0,7.0,82,0.00,,,0.00,WUHU216DAVISVP2,2013-09-06 14:28:00,
2013-09-06 09:33:00,67.9,62.2,30.10,NW,321,3.0,6.0,82,0.00,,,0.00,WUHU216DAVISVP2,2013-09-06 14:33:00,
2013-09-06 09:38:00,68.0,62.4,30.11,NW,324,3.0,6.0,82,0.00,,,0.00,WUHU216DAVISVP2,2013-09-06 14:38:00,
2013-09-06 09:43:00,68.2,62.6,30.11,NNW,329,2.0,6.0,82,0.00,,,0.00,WUHU216DAVISVP2,2013-09-06 14:43:00,
2013-09-06 09:48:00,68.5,62.5,30.10,NNW,329,2.0,6.0,81,0.00,,,0.00,WUHU216DAVISVP2,2013-09-06 14:48:00,
2013-09-06 09:53:00,68.7,62.7,30.11,NNW,333,3.0,6.0,81,0.00,,,0.00,WUHU216DAVISVP2,2013-09-06 14:53:00,
2013-09-06 09:58:00,68.9,62.2,30.11,NNW,333,4.0,5.0,79,0.00,,,0.00,WUHU216DAVISVP2,2013-09-06 14:58:00,
2013-09-06 10:03:00,69.3,61.9,30.11,NNW,336,4.0,5.0,77,0.00,,,0.00,WUHU216DAVISVP2,2013-09-06 15:03:00,
2013-09-06 10:08:00,69.8,62.0,30.11,North,350,2.0,6.0,76,0.00,,,0.00,WUHU216DAVISVP2,2013-09-06 15:08:00,
2013-09-06 10:13:00,70.0,61.9,30.11,North,349,3.0,6.0,75,0.00,,,0.00,WUHU216DAVISVP2,2013-09-06 15:13:00,
2013-09-06 10:18:00,70.0,61.5,30.11,NNW,345,3.0,6.0,74,0.00,,,0.00,WUHU216DAVISVP2,2013-09-06 15:18:00,
2013-09-06 10:23:00,70.0,61.5,30.11,NNW,338,3.0,6.0,74,0.00,,,0.00,WUHU216DAVISVP2,2013-09-06 15:23:00,
2013-09-06 10:28:00,70.0,61.5,30.11,NNW,338,3.0,6.0,74,0.00,,,0.00,WUHU216DAVISVP2,2013-09-06 15:28:00,
2013-09-06 10:33:00,69.9,61.7,30.11,NNW,338,3.0,7.0,75,0.00,,,0.00,WUHU216DAVISVP2,2013-09-06 15:33:00,
2013-09-06 10:38:00,69.9,62.1,30.11,NNW,338,4.0,7.0,76,0.00,,,0.00,WUHU216DAVISVP2,2013-09-06 15:38:00,
2013-09-06 10:43:00,70.0,62.2,30.11,NNW,341,5.0,7.0,76,0.00,,,0.00,WUHU216DAVISVP2,2013-09-06 15:43:00,
2013-09-06 10:48:00,70.2,62.4,30.11,NNW,341,6.0,7.0,76,0.00,,,0.00,WUHU216DAVISVP2,2013-09-06 15:48:00,
2013-09-06 10:53:00,70.6,62.4,30.11,North,352,3.0,8.0,75,0.00,,,0.00,WUHU216DAVISVP2,2013-09-06 15:53:00,
2013-09-06 10:58:00,71.2,61.5,30.11,NNW,345,2.0,8.0,71,0.00,,,0.00,WUHU216DAVISVP2,2013-09-06 15:58:00,
2013-09-06 11:03:00,71.7,61.2,30.11,North,351,5.0,10.0,69,0.00,,,0.00,WUHU216DAVISVP2,2013-09-06 16:03:00,
2013-09-06 11:08:00,71.8,61.3,30.11,North,350,7.0,10.0,69,0.00,,,0.00,WUHU216DAVISVP2,2013-09-06 16:08:00,
2013-09-06 11:13:00,71.8,60.9,30.11,North,357,5.0,10.0,68,0.00,,,0.00,WUHU216DAVISVP2,2013-09-06 16:13:00,
2013-09-06 11:18:00,71.9,61.0,30.11,North,356,1.0,10.0,68,0.00,,,0.00,WUHU216DAVISVP2,2013-09-06 16:18:00,
2013-09-06 11:23:00,72.2,60.8,30.11,NNW,346,2.0,9.0,67,0.00,,,0.00,WUHU216DAVISVP2,2013-09-06 16:23:00,
2013-09-06 11:28:00,72.6,62.0,30.11,North,353,2.0,9.0,69,0.00,,,0.00,WUHU216DAVISVP2,2013-09-06 16:28:00,
2013-09-06 11:33:00,72.8,61.0,30.11,North,7,7.0,8.0,66,0.00,,,0.00,WUHU216DAVISVP2,2013-09-06 16:33:00,
2013-09-06 11:38:00,72.7,60.9,30.11,North,349,8.0,8.0,66,0.00,,,0.00,WUHU216DAVISVP2,2013-09-06 16:38:00,
2013-09-06 11:43:00,73.0,61.2,30.11,North,356,2.0,9.0,66,0.00,,,0.00,WUHU216DAVISVP2,2013-09-06 16:43:00,
2013-09-06 11:48:00,73.2,60.5,30.11,North,4,0.0,9.0,64,0.00,,,0.00,WUHU216DAVISVP2,2013-09-06 16:48:00,
2013-09-06 11:53:00,73.3,61.4,30.10,NNE,15,5.0,9.0,66,0.00,,,0.00,WUHU216DAVISVP2,2013-09-06 16:53:00,
2013-09-06 11:58:00,73.4,60.7,30.10,NNW,346,1.0,8.0,64,0.00,,,0.00,WUHU216DAVISVP2,2013-09-06 16:58:00,
2013-09-06 12:03:00,73.6,61.3,30.10,NNW,331,2.0,8.0,65,0.00,,,0.00,WUHU216DAVISVP2,2013-09-06 17:03:00,
2013-09-06 12:08:00,73.9,62.5,30.10,NNW,344,4.0,8.0,67,0.00,,,0.00,WUHU216DAVISVP2,2013-09-06 17:08:00,
2013-09-06 12:13:00,74.0,61.2,30.09,North,356,3.0,8.0,64,0.00,,,0.00,WUHU216DAVISVP2,2013-09-06 17:13:00,
2013-09-06 12:18:00,74.1,61.0,30.09,NNW,330,1.0,10.0,63,0.00,,,0.00,WUHU216DAVISVP2,2013-09-06 17:18:00,
2013-09-06 12:23:00,74.3,60.7,30.09,NW,311,5.0,10.0,62,0.00,,,0.00,WUHU216DAVISVP2,2013-09-06 17:23:00,
2013-09-06 12:28:00,74.6,60.9,30.09,NW,322,2.0,10.0,62,0.00,,,0.00,WUHU216DAVISVP2,2013-09-06 17:28:00,
2013-09-06 12:33:00,75.0,60.3,30.09,NNW,335,2.0,9.0,60,0.00,,,0.00,WUHU216DAVISVP2,2013-09-06 17:33:00,
2013-09-06 12:38:00,75.3,60.7,30.09,NNW,341,3.0,8.0,60,0.00,,,0.00,WUHU216DAVISVP2,2013-09-06 17:38:00,
2013-09-06 12:43:00,75.5,59.9,30.08,NNW,335,2.0,8.0,58,0.00,,,0.00,WUHU216DAVISVP2,2013-09-06 17:43:00,
2013-09-06 12:48:00,75.6,59.0,30.08,NW,318,4.0,8.0,56,0.00,,,0.00,WUHU216DAVISVP2,2013-09-06 17:48:00,
2013-09-06 12:53:00,75.5,59.9,30.08,NE,48,1.0,8.0,58,0.00,,,0.00,WUHU216DAVISVP2,2013-09-06 17:53:00,
2013-09-06 12:58:00,75.5,60.4,30.08,North,360,2.0,7.0,59,0.00,,,0.00,WUHU216DAVISVP2,2013-09-06 17:58:00,
2013-09-06 13:03:00,75.9,59.8,30.08,NNW,332,3.0,7.0,57,0.00,,,0.00,WUHU216DAVISVP2,2013-09-06 18:03:00,
2013-09-06 13:08:00,76.3,61.1,30.07,NNW,332,0.0,6.0,59,0.00,,,0.00,WUHU216DAVISVP2,2013-09-06 18:08:00,
2013-09-06 13:13:00,76.3,59.6,30.07,NNW,337,0.0,6.0,56,0.00,,,0.00,WUHU216DAVISVP2,2013-09-06 18:13:00,
2013-09-06 13:18:00,76.5,58.8,30.07,NNW,335,3.0,6.0,54,0.00,,,0.00,WUHU216DAVISVP2,2013-09-06 18:18:00,
2013-09-06 13:23:00,77.0,59.8,30.07,NNW,335,1.0,5.0,55,0.00,,,0.00,WUHU216DAVISVP2,2013-09-06 18:23:00,
2013-09-06 13:28:00,77.2,57.2,30.07,NNW,335,0.0,5.0,50,0.00,,,0.00,WUHU216DAVISVP2,2013-09-06 18:28:00,
2013-09-06 13:33:00,77.3,57.3,30.07,NNW,328,2.0,5.0,50,0.00,,,0.00,WUHU216DAVISVP2,2013-09-06 18:33:00,
2013-09-06 13:38:00,77.3,56.2,30.07,NNW,327,0.0,5.0,48,0.00,,,0.00,WUHU216DAVISVP2,2013-09-06 18:38:00,
2013-09-06 13:43:00,77.6,58.7,30.06,WNW,297,6.0,8.0,52,0.00,,,0.00,WUHU216DAVISVP2,2013-09-06 18:43:00,
2013-09-06 13:48:00,77.7,59.3,30.06,NW,313,2.0,8.0,53,0.00,,,0.00,WUHU216DAVISVP2,2013-09-06 18:48:00,
2013-09-06 13:53:00,77.8,58.9,30.06,West,277,7.0,8.0,52,0.00,,,0.00,WUHU216DAVISVP2,2013-09-06 18:53:00,
2013-09-06 13:58:00,77.6,58.7,30.06,West,275,3.0,8.0,52,0.00,,,0.00,WUHU216DAVISVP2,2013-09-06 18:58:00,
2013-09-06 14:03:00,77.4,59.6,30.06,West,275,0.0,7.0,54,0.00,,,0.00,WUHU216DAVISVP2,2013-09-06 19:03:00,
2013-09-06 14:08:00,77.7,58.2,30.06,NNW,348,2.0,7.0,51,0.00,,,0.00,WUHU216DAVISVP2,2013-09-06 19:08:00,
2013-09-06 14:13:00,77.9,56.1,30.05,NNW,348,0.0,6.0,47,0.00,,,0.00,WUHU216DAVISVP2,2013-09-06 19:13:00,
2013-09-06 14:18:00,78.6,59.1,30.05,NNW,343,0.0,6.0,51,0.00,,,0.00,WUHU216DAVISVP2,2013-09-06 19:18:00,
2013-09-06 14:23:00,78.9,58.7,30.05,NE,35,4.0,6.0,50,0.00,,,0.00,WUHU216DAVISVP2,2013-09-06 19:23:00,
2013-09-06 14:28:00,78.2,58.2,30.05,NE,54,0.0,6.0,50,0.00,,,0.00,WUHU216DAVISVP2,2013-09-06 19:28:00,
2013-09-06 14:33:00,78.5,59.0,30.05,North,358,8.0,10.0,51,0.00,,,0.00,WUHU216DAVISVP2,2013-09-06 19:33:00,
2013-09-06 14:38:00,78.4,57.1,30.04,ENE,61,1.0,10.0,48,0.00,,,0.00,WUHU216DAVISVP2,2013-09-06 19:38:00,
2013-09-06 14:43:00,78.8,58.1,30.04,NE,50,0.0,10.0,49,0.00,,,0.00,WUHU216DAVISVP2,2013-09-06 19:43:00,
2013-09-06 14:48:00,79.4,59.3,30.04,North,6,3.0,10.0,50,0.00,,,0.00,WUHU216DAVISVP2,2013-09-06 19:48:00,
2013-09-06 14:53:00,79.2,56.7,30.04,East,79,4.0,6.0,46,0.00,,,0.00,WUHU216DAVISVP2,2013-09-06 19:53:00,
2013-09-06 14:58:00,79.3,57.4,30.03,East,79,3.0,6.0,47,0.00,,,0.00,WUHU216DAVISVP2,2013-09-06 19:58:00,
2013-09-06 15:03:00,79.4,59.3,30.03,East,89,4.0,6.0,50,0.00,,,0.00,WUHU216DAVISVP2,2013-09-06 20:03:00,
2013-09-06 15:08:00,79.8,59.0,30.03,ENE,60,1.0,6.0,49,0.00,,,0.00,WUHU216DAVISVP2,2013-09-06 20:08:00,
2013-09-06 15:13:00,80.4,58.4,30.03,ENE,67,4.0,7.0,47,0.00,,,0.00,WUHU216DAVISVP2,2013-09-06 20:13:00,
2013-09-06 15:18:00,80.8,58.8,30.03,NNE,15,2.0,7.0,47,0.00,,,0.00,WUHU216DAVISVP2,2013-09-06 20:18:00,
2013-09-06 15:23:00,81.1,57.1,30.03,North,360,4.0,8.0,44,0.00,,,0.00,WUHU216DAVISVP2,2013-09-06 20:23:00,
2013-09-06 15:28:00,81.3,58.0,30.02,NNW,337,3.0,8.0,45,0.00,,,0.00,WUHU216DAVISVP2,2013-09-06 20:28:00,
2013-09-06 15:33:00,81.3,57.3,30.02,NE,51,2.0,8.0,44,0.00,,,0.00,WUHU216DAVISVP2,2013-09-06 20:33:00,
2013-09-06 15:38:00,80.6,57.4,30.02,ENE,63,0.0,8.0,45,0.00,,,0.00,WUHU216DAVISVP2,2013-09-06 20:38:00,
2013-09-06 15:43:00,80.8,58.1,30.02,NNW,346,1.0,8.0,46,0.00,,,0.00,WUHU216DAVISVP2,2013-09-06 20:43:00,
2013-09-06 15:48:00,81.1,59.6,30.02,NNW,332,4.0,7.0,48,0.00,,,0.00,WUHU216DAVISVP2,2013-09-06 20:48:00,
2013-09-06 15:53:00,81.5,59.4,30.01,NNW,339,2.0,7.0,47,0.00,,,0.00,WUHU216DAVISVP2,2013-09-06 20:53:00,
2013-09-06 15:58:00,81.9,59.8,30.01,NW,304,6.0,7.0,47,0.00,,,0.00,WUHU216DAVISVP2,2013-09-06 20:58:00,
2013-09-06 16:03:00,82.2,59.4,30.01,NNW,337,3.0,7.0,46,0.00,,,0.00,WUHU216DAVISVP2,2013-09-06 21:03:00,
2013-09-06 16:08:00,82.3,58.2,30.01,NNE,15,0.0,7.0,44,0.00,,,0.00,WUHU216DAVISVP2,2013-09-06 21:08:00,
2013-09-06 16:13:00,82.4,57.7,30.01,North,4,2.0,7.0,43,0.00,,,0.00,WUHU216DAVISVP2,2013-09-06 21:13:00,
2013-09-06 16:18:00,82.7,56.6,30.01,North,4,2.0,6.0,41,0.00,,,0.00,WUHU216DAVISVP2,2013-09-06 21:18:00,
2013-09-06 16:23:00,82.9,58.8,30.01,North,358,0.0,7.0,44,0.00,,,0.00,WUHU216DAVISVP2,2013-09-06 21:23:00,
2013-09-06 16:28:00,83.2,59.1,30.01,ENE,62,5.0,7.0,44,0.00,,,0.00,WUHU216DAVISVP2,2013-09-06 21:28:00,
2013-09-06 16:33:00,83.1,58.3,30.01,ENE,64,1.0,7.0,43,0.00,,,0.00,WUHU216DAVISVP2,2013-09-06 21:33:00,
2013-09-06 16:38:00,83.3,59.1,30.01,NNE,15,1.0,7.0,44,0.00,,,0.00,WUHU216DAVISVP2,2013-09-06 21:38:00,
2013-09-06 16:43:00,83.5,59.4,30.00,NNW,344,1.0,9.0,44,0.00,,,0.00,WUHU216DAVISVP2,2013-09-06 21:43:00,
2013-09-06 16:48:00,83.6,59.4,30.00,NNE,20,3.0,9.0,44,0.00,,,0.00,WUHU216DAVISVP2,2013-09-06 21:48:00,
2013-09-06 16:53:00,83.7,58.9,30.00,NNE,20,0.0,9.0,43,0.00,,,0.00,WUHU216DAVISVP2,2013-09-06 21:53:00,
2013-09-06 16:58:00,84.1,59.8,30.00,NNW,333,0.0,9.0,44,0.00,,,0.00,WUHU216DAVISVP2,2013-09-06 21:58:00,
2013-09-06 17:03:00,84.3,59.4,30.00,NNW,341,3.0,6.0,43,0.00,,,0.00,WUHU216DAVISVP2,2013-09-06 22:03:00,
2013-09-06 17:08:00,84.6,60.3,30.00,North,351,0.0,6.0,44,0.00,,,0.00,WUHU216DAVISVP2,2013-09-06 22:08:00,
2013-09-06 17:13:00,84.7,60.4,30.00,NNE,33,3.0,6.0,44,0.00,,,0.00,WUHU216DAVISVP2,2013-09-06 22:13:00,
2013-09-06 17:18:00,84.4,60.8,30.00,NNE,32,4.0,6.0,45,0.00,,,0.00,WUHU216DAVISVP2,2013-09-06 22:18:00,
2013-09-06 17:23:00,84.5,60.3,30.00,North,8,0.0,6.0,44,0.00,,,0.00,WUHU216DAVISVP2,2013-09-06 22:23:00,
2013-09-06 17:28:00,84.8,61.8,30.00,North,8,3.0,6.0,46,0.00,,,0.00,WUHU216DAVISVP2,2013-09-06 22:28:00,
2013-09-06 17:33:00,85.1,62.0,29.99,North,357,3.0,6.0,46,0.00,,,0.00,WUHU216DAVISVP2,2013-09-06 22:33:00,
2013-09-06 17:38:00,85.2,62.2,29.99,NNW,339,4.0,6.0,46,0.00,,,0.00,WUHU216DAVISVP2,2013-09-06 22:38:00,
2013-09-06 17:43:00,85.1,62.0,29.99,NW,326,2.0,7.0,46,0.00,,,0.00,WUHU216DAVISVP2,2013-09-06 22:43:00,
2013-09-06 17:48:00,85.1,63.3,29.99,NW,326,3.0,7.0,48,0.00,,,0.00,WUHU216DAVISVP2,2013-09-06 22:48:00,
2013-09-06 17:53:00,85.1,63.3,29.99,NW,326,3.0,7.0,48,0.00,,,0.00,WUHU216DAVISVP2,2013-09-06 22:53:00,
2013-09-06 17:58:00,85.1,63.3,29.99,NW,326,3.0,7.0,48,0.00,,,0.00,WUHU216DAVISVP2,2013-09-06 22:58:00,
2013-09-06 18:03:00,85.1,63.9,29.99,NW,326,1.0,5.0,49,0.00,,,0.00,WUHU216DAVISVP2,2013-09-06 23:03:00,
2013-09-06 18:08:00,84.8,64.3,29.99,NW,326,2.0,5.0,50,0.00,,,0.00,WUHU216DAVISVP2,2013-09-06 23:08:00,
2013-09-06 18:13:00,84.7,64.1,29.99,NW,326,0.0,4.0,50,0.00,,,0.00,WUHU216DAVISVP2,2013-09-06 23:13:00,
2013-09-06 18:18:00,84.5,63.9,29.99,NW,326,0.0,5.0,50,0.00,,,0.00,WUHU216DAVISVP2,2013-09-06 23:18:00,
2013-09-06 18:23:00,84.3,64.4,29.99,NW,326,4.0,5.0,51,0.00,,,0.00,WUHU216DAVISVP2,2013-09-06 23:23:00,
2013-09-06 18:28:00,84.0,65.2,29.99,NW,326,0.0,6.0,53,0.00,,,0.00,WUHU216DAVISVP2,2013-09-06 23:28:00,
2013-09-06 18:33:00,83.8,65.0,29.99,NNW,331,3.0,6.0,53,0.00,,,0.00,WUHU216DAVISVP2,2013-09-06 23:33:00,
2013-09-06 18:38:00,83.5,64.8,29.99,NNW,331,0.0,6.0,53,0.00,,,0.00,WUHU216DAVISVP2,2013-09-06 23:38:00,
2013-09-06 18:43:00,83.3,65.1,29.99,NNW,331,1.0,5.0,54,0.00,,,0.00,WUHU216DAVISVP2,2013-09-06 23:43:00,
2013-09-06 18:48:00,83.0,64.9,29.99,NNW,331,3.0,5.0,54,0.00,,,0.00,WUHU216DAVISVP2,2013-09-06 23:48:00,
2013-09-06 18:53:00,82.8,65.2,29.99,NNW,331,0.0,4.0,55,0.00,,,0.00,WUHU216DAVISVP2,2013-09-06 23:53:00,
2013-09-06 18:58:00,82.6,64.4,29.99,NNW,331,0.0,4.0,54,0.00,,,0.00,WUHU216DAVISVP2,2013-09-06 23:58:00,
2013-09-06 19:03:00,82.5,64.9,29.99,NNW,331,0.0,4.0,55,0.00,,,0.00,WUHU216DAVISVP2,2013-09-07 00:03:00,
2013-09-06 19:08:00,82.3,65.2,29.99,NNW,331,0.0,3.0,56,0.00,,,0.00,WUHU216DAVISVP2,2013-09-07 00:08:00,
2013-09-06 19:13:00,82.0,64.9,29.98,NNW,331,0.0,0.0,56,0.00,,,0.00,WUHU216DAVISVP2,2013-09-07 00:13:00,
2013-09-06 19:18:00,81.4,64.4,29.98,NNW,331,0.0,0.0,56,0.00,,,0.00,WUHU216DAVISVP2,2013-09-07 00:18:00,
2013-09-06 19:23:00,81.0,64.0,29.98,NNW,331,0.0,0.0,56,0.00,,,0.00,WUHU216DAVISVP2,2013-09-07 00:23:00,
2013-09-06 19:28:00,80.5,64.5,29.98,NNW,331,0.0,0.0,58,0.00,,,0.00,WUHU216DAVISVP2,2013-09-07 00:28:00,
2013-09-06 19:33:00,79.9,64.5,29.98,NNW,331,0.0,2.0,59,0.00,,,0.00,WUHU216DAVISVP2,2013-09-07 00:33:00,
2013-09-06 19:38:00,79.4,64.5,29.98,NNW,331,0.0,2.0,60,0.00,,,0.00,WUHU216DAVISVP2,2013-09-07 00:38:00,
2013-09-06 19:43:00,78.8,64.0,29.98,NNW,331,0.0,2.0,60,0.00,,,0.00,WUHU216DAVISVP2,2013-09-07 00:43:00,
2013-09-06 19:48:00,78.3,64.0,29.98,NNW,331,1.0,2.0,61,0.00,,,0.00,WUHU216DAVISVP2,2013-09-07 00:48:00,
2013-09-06 19:53:00,77.8,63.9,29.98,NNW,331,0.0,3.0,62,0.00,,,0.00,WUHU216DAVISVP2,2013-09-07 00:53:00,
2013-09-06 19:58:00,77.3,64.0,29.98,NNW,331,0.0,3.0,63,0.00,,,0.00,WUHU216DAVISVP2,2013-09-07 00:58:00,
2013-09-06 20:03:00,76.9,63.6,29.98,NNW,331,0.0,3.0,63,0.00,,,0.00,WUHU216DAVISVP2,2013-09-07 01:03:00,
2013-09-06 20:08:00,76.6,63.3,29.98,NNW,331,0.0,3.0,63,0.00,,,0.00,WUHU216DAVISVP2,2013-09-07 01:08:00,
2013-09-06 20:13:00,76.2,62.5,29.98,NNW,331,0.0,3.0,62,0.00,,,0.00,WUHU216DAVISVP2,2013-09-07 01:13:00,
2013-09-06 20:18:00,76.1,62.8,29.98,NNW,331,0.0,3.0,63,0.00,,,0.00,WUHU216DAVISVP2,2013-09-07 01:18:00,
2013-09-06 20:23:00,75.9,62.6,29.98,NNW,331,0.0,1.0,63,0.00,,,0.00,WUHU216DAVISVP2,2013-09-07 01:23:00,
2013-09-06 20:28:00,75.5,62.7,29.98,NNW,331,1.0,2.0,64,0.00,,,0.00,WUHU216DAVISVP2,2013-09-07 01:28:00,
2013-09-06 20:33:00,75.2,62.4,29.98,NNW,331,3.0,3.0,64,0.00,,,0.00,WUHU216DAVISVP2,2013-09-07 01:33:00,
2013-09-06 20:38:00,74.9,62.5,29.98,NNW,331,0.0,4.0,65,0.00,,,0.00,WUHU216DAVISVP2,2013-09-07 01:38:00,
2013-09-06 20:43:00,74.6,62.2,29.98,NNW,331,0.0,4.0,65,0.00,,,0.00,WUHU216DAVISVP2,2013-09-07 01:43:00,
2013-09-06 20:48:00,74.2,62.3,29.98,NNW,331,2.0,4.0,66,0.00,,,0.00,WUHU216DAVISVP2,2013-09-07 01:48:00,
2013-09-06 20:53:00,74.1,62.2,29.98,NNW,331,0.0,4.0,66,0.00,,,0.00,WUHU216DAVISVP2,2013-09-07 01:53:00,
2013-09-06 20:58:00,73.9,62.0,29.98,NNW,331,2.0,4.0,66,0.00,,,0.00,WUHU216DAVISVP2,2013-09-07 01:58:00,
2013-09-06 21:03:00,73.6,62.2,29.98,NNW,331,2.0,4.0,67,0.00,,,0.00,WUHU216DAVISVP2,2013-09-07 02:03:00,
2013-09-06 21:08:00,73.5,62.1,29.98,NNW,331,3.0,4.0,67,0.00,,,0.00,WUHU216DAVISVP2,2013-09-07 02:08:00,
2013-09-06 21:13:00,73.3,61.9,29.98,NNW,331,2.0,4.0,67,0.00,,,0.00,WUHU216DAVISVP2,2013-09-07 02:13:00,
2013-09-06 21:18:00,73.2,62.2,29.98,NNW,331,3.0,4.0,68,0.00,,,0.00,WUHU216DAVISVP2,2013-09-07 02:18:00,
2013-09-06 21:23:00,72.9,61.9,29.98,NNW,331,1.0,4.0,68,0.00,,,0.00,WUHU216DAVISVP2,2013-09-07 02:23:00,
2013-09-06 21:28:00,72.8,61.8,29.98,NNE,20,3.0,4.0,68,0.00,,,0.00,WUHU216DAVISVP2,2013-09-07 02:28:00,
2013-09-06 21:33:00,72.5,61.9,29.98,NNW,331,1.0,4.0,69,0.00,,,0.00,WUHU216DAVISVP2,2013-09-07 02:33:00,
2013-09-06 21:38:00,72.2,61.7,29.98,NNW,331,3.0,4.0,69,0.00,,,0.00,WUHU216DAVISVP2,2013-09-07 02:38:00,
2013-09-06 21:42:00,72.0,61.9,29.99,NNW,331,2.0,4.0,70,0.00,,,0.00,WUHU216DAVISVP2,2013-09-07 02:42:00,
2013-09-06 21:47:00,71.8,62.1,29.98,NNW,331,3.0,5.0,71,0.00,,,0.00,WUHU216DAVISVP2,2013-09-07 02:47:00,
2013-09-06 21:52:00,71.6,61.8,29.99,NNW,331,1.0,5.0,71,0.00,,,0.00,WUHU216DAVISVP2,2013-09-07 02:52:00,
2013-09-06 21:58:00,71.3,62.0,29.99,NNW,329,3.0,5.0,72,0.00,,,0.00,WUHU216DAVISVP2,2013-09-07 02:58:00,
2013-09-06 22:02:00,71.2,61.9,29.99,NNW,329,1.0,5.0,72,0.00,,,0.00,WUHU216DAVISVP2,2013-09-07 03:02:00,
2013-09-06 22:07:00,71.0,62.1,29.99,NNW,329,2.0,5.0,73,0.00,,,0.00,WUHU216DAVISVP2,2013-09-07 03:07:00,
2013-09-06 22:12:00,70.8,61.9,29.99,NNW,329,0.0,5.0,73,0.00,,,0.00,WUHU216DAVISVP2,2013-09-07 03:12:00,
2013-09-06 22:17:00,70.6,62.0,29.99,NNW,329,2.0,2.0,74,0.00,,,0.00,WUHU216DAVISVP2,2013-09-07 03:17:00,
2013-09-06 22:22:00,70.2,61.7,29.99,NNW,329,2.0,4.0,74,0.00,,,0.00,WUHU216DAVISVP2,2013-09-07 03:22:00,
2013-09-06 22:27:00,70.0,61.9,29.99,NNW,328,2.0,5.0,75,0.00,,,0.00,WUHU216DAVISVP2,2013-09-07 03:27:00,
2013-09-06 22:33:00,69.9,62.1,29.99,NNW,327,2.0,5.0,76,0.00,,,0.00,WUHU216DAVISVP2,2013-09-07 03:33:00,
2013-09-06 22:38:00,69.7,61.9,29.99,NNW,327,2.0,5.0,76,0.00,,,0.00,WUHU216DAVISVP2,2013-09-07 03:38:00,
2013-09-06 22:42:00,69.6,61.8,29.99,NNW,327,0.0,5.0,76,0.00,,,0.00,WUHU216DAVISVP2,2013-09-07 03:42:00,
2013-09-06 22:47:00,69.5,61.8,29.98,NNW,327,0.0,5.0,76,0.00,,,0.00,WUHU216DAVISVP2,2013-09-07 03:47:00,
2013-09-06 22:52:00,69.4,61.7,29.98,NNW,327,0.0,5.0,76,0.00,,,0.00,WUHU216DAVISVP2,2013-09-07 03:52:00,
2013-09-06 22:57:00,69.2,61.4,29.99,NNW,327,0.0,4.0,76,0.00,,,0.00,WUHU216DAVISVP2,2013-09-07 03:57:00,
2013-09-06 23:01:00,69.2,61.4,29.99,NNW,327,0.0,3.0,76,0.00,,,0.00,WUHU216DAVISVP2,2013-09-07 04:01:00,
2013-09-06 23:06:00,69.0,61.6,29.99,NNW,327,0.0,3.0,77,0.00,,,0.00,WUHU216DAVISVP2,2013-09-07 04:06:00,
2013-09-06 23:11:00,68.8,61.4,29.99,NNW,327,0.0,3.0,77,0.00,,,0.00,WUHU216DAVISVP2,2013-09-07 04:11:00,
2013-09-06 23:16:00,68.6,61.3,29.99,NNW,327,0.0,3.0,77,0.00,,,0.00,WUHU216DAVISVP2,2013-09-07 04:16:00,
2013-09-06 23:21:00,68.4,61.4,29.99,NNW,327,0.0,3.0,78,0.00,,,0.00,WUHU216DAVISVP2,2013-09-07 04:21:00,
2013-09-06 23:26:00,68.2,61.5,29.99,NNW,327,0.0,2.0,79,0.00,,,0.00,WUHU216DAVISVP2,2013-09-07 04:26:00,
2013-09-06 23:31:00,68.1,61.4,29.99,NNW,327,0.0,2.0,79,0.00,,,0.00,WUHU216DAVISVP2,2013-09-07 04:31:00,
2013-09-06 23:36:00,67.9,61.2,29.99,NNW,327,0.0,2.0,79,0.00,,,0.00,WUHU216DAVISVP2,2013-09-07 04:36:00,
2013-09-06 23:41:00,67.7,61.0,30.00,NNW,327,0.0,1.0,79,0.00,,,0.00,WUHU216DAVISVP2,2013-09-07 04:41:00,
2013-09-06 23:46:00,67.6,60.9,29.99,NNW,327,0.0,2.0,79,0.00,,,0.00,WUHU216DAVISVP2,2013-09-07 04:46:00,
2013-09-06 23:51:00,67.4,60.7,29.99,NNW,327,0.0,2.0,79,0.00,,,0.00,WUHU216DAVISVP2,2013-09-07 04:51:00,
2013-09-06 23:56:00,67.3,60.9,29.99,NNW,327,0.0,2.0,80,0.00,,,0.00,WUHU216DAVISVP2,2013-09-07 04:56:00,